"startDT [UTC]","vpos","CH4 [ppm]","stdev(CH4) [ppm]","CO2 [ppm]","stdev(CO2) [ppm]","H2O [ppm]","stdev(H2O)","p_LGR [torr]","T_LGR [C]","mt1_LGR [us]","mt2_LGR [us]","T_ECpre [C]","T_EC1 [C]","T_EC2 [C]","p_inlet [hPa]","p_in [hPa]","p_out [hPa]","T_inlet [C]","RH_inlet [%]","dwpt_inlet [C]","T_vent [C]","RH_vent [%]","dwpt_vent [C]","flow_vent [l min-1]","flow_inlet [l min-1]","dwpt_sample [C]","T_room [C]"
2012-11-14 00:00:00,0.0,1.9028,0.0011,399.87,0.21,23.4,23.7,138.08,30.04,24.65,36.41,0.04,-272.75,-272.75,-47,562,-943,24.4,1.8,-29.4,24.5,1.8,-29.0,5.73,2.41,-28.0,29.3
2012-11-14 00:01:00,0.0,1.9025,0.0009,399.79,0.22,17.3,19.6,138.08,30.04,24.65,36.42,0.04,-272.75,-272.75,-47,562,-943,24.4,1.7,-29.4,24.5,1.8,-29.2,5.73,2.42,-28.0,29.3
2012-11-14 00:02:00,0.0,1.9025,0.0010,399.93,0.24,15.2,23.3,138.08,30.04,24.65,36.41,0.04,-272.75,-272.75,-47,562,-943,24.5,1.8,-29.3,24.5,1.8,-29.1,5.73,2.43,-28.0,29.3
2012-11-14 00:03:00,0.0,1.9027,0.0009,399.85,0.21,13.9,20.8,138.08,30.04,24.65,36.42,0.04,-272.75,-272.75,-47,562,-943,24.4,1.8,-29.2,24.5,1.8,-29.0,5.73,2.43,-28.0,29.3
2012-11-14 00:04:00,0.0,1.9025,0.0008,399.79,0.25,28.6,31.5,138.08,30.04,24.65,36.42,0.04,-272.75,-272.75,-47,562,-943,24.4,1.7,-29.4,24.5,1.8,-28.8,5.73,2.43,-28.0,29.3
2012-11-14 00:05:00,0.0,1.9025,0.0009,399.78,0.26,21.5,22.4,138.08,30.04,24.65,36.41,0.04,-272.75,-272.75,-47,562,-943,24.4,1.8,-29.4,24.5,1.8,-29.1,5.73,2.41,-28.0,29.3
2012-11-14 00:06:00,0.0,1.9023,0.0009,399.79,0.28,23.7,27.0,138.08,30.03,24.66,36.42,0.04,-272.75,-272.75,-47,562,-944,24.4,1.7,-29.5,24.5,1.8,-29.2,5.73,2.40,-28.0,29.3
2012-11-14 00:07:00,0.0,1.9027,0.0008,399.77,0.28,23.2,20.8,138.08,30.03,24.65,36.42,0.04,-272.75,-272.75,-47,562,-943,24.4,1.7,-29.6,24.5,1.8,-29.3,5.73,2.39,-28.0,29.3
2012-11-14 00:08:00,0.0,1.9037,0.0009,399.75,0.23,19.9,23.7,138.08,30.03,24.65,36.42,0.04,-272.75,-272.75,-47,562,-943,24.4,1.7,-29.6,24.5,1.8,-29.3,5.73,2.39,-28.0,29.3
2012-11-14 00:09:00,0.0,1.9038,0.0009,399.89,0.23,21.2,26.3,138.08,30.03,24.65,36.41,0.04,-272.75,-272.75,-47,562,-943,24.4,1.7,-29.8,24.5,1.7,-29.4,5.73,2.39,-28.0,29.3
2012-11-14 00:10:00,0.0,1.9029,0.0010,399.83,0.24,17.7,22.3,138.08,30.03,24.66,36.42,0.04,-272.75,-272.75,-47,562,-944,24.4,1.7,-29.9,24.5,1.7,-29.6,5.73,2.39,-28.0,29.3
2012-11-14 00:11:00,0.0,1.9045,0.0008,399.81,0.23,16.5,19.4,138.08,30.03,24.65,36.42,0.04,-272.75,-272.75,-47,562,-943,24.4,1.7,-29.9,24.5,1.7,-29.6,5.73,2.40,-28.0,29.3
2012-11-14 00:12:00,0.0,1.9036,0.0009,399.82,0.24,19.1,24.6,138.08,30.03,24.65,36.41,0.04,-272.75,-272.75,-47,562,-943,24.4,1.7,-29.9,24.4,1.7,-29.5,5.73,2.41,-28.0,29.3
2012-11-14 00:13:00,0.0,1.9029,0.0009,399.79,0.27,24.3,25.4,138.08,30.03,24.65,36.42,0.04,-272.75,-272.75,-47,562,-943,24.4,1.7,-29.7,24.4,1.8,-29.4,5.73,2.42,-28.0,29.3
2012-11-14 00:14:00,0.0,1.9027,0.0010,399.82,0.25,19.3,22.9,138.08,30.03,24.65,36.41,0.04,-272.75,-272.75,-47,562,-943,24.4,1.7,-29.7,24.4,1.8,-29.3,5.73,2.43,-28.0,29.3
2012-11-14 00:15:00,0.0,1.9029,0.0008,399.77,0.26,20.6,22.5,138.08,30.02,24.65,36.42,0.04,-272.75,-272.75,-47,562,-943,24.4,1.7,-29.5,24.4,1.8,-29.1,5.73,2.43,-28.1,29.3
2012-11-14 00:16:00,0.0,1.9027,0.0009,399.69,0.27,20.7,26.4,138.08,30.02,24.65,36.42,0.04,-272.74,-272.75,-47,562,-943,24.4,1.8,-29.3,24.4,1.8,-29.1,5.73,2.43,-28.1,29.2
2012-11-14 00:17:00,0.0,1.9029,0.0009,399.79,0.29,16.8,21.0,138.08,30.02,24.65,36.42,0.04,-272.75,-272.75,-47,562,-943,24.4,1.8,-29.2,24.4,1.8,-28.9,5.73,2.42,-28.1,29.3
2012-11-14 00:18:00,0.0,1.9025,0.0009,399.86,0.24,20.5,27.6,138.08,30.02,24.66,36.42,0.04,-272.75,-272.75,-47,562,-943,24.4,1.8,-29.1,24.4,1.9,-28.8,5.73,2.41,-28.1,29.3
2012-11-14 00:19:00,0.0,1.9028,0.0011,399.79,0.21,13.7,20.7,138.08,30.02,24.65,36.42,0.04,-272.74,-272.75,-47,562,-943,24.4,1.8,-29.0,24.4,1.9,-28.8,5.73,2.40,-28.1,29.3
2012-11-14 00:20:00,0.0,1.9030,0.0009,399.82,0.25,17.3,22.9,138.08,30.01,24.65,36.41,0.04,-272.75,-272.75,-47,562,-943,24.4,1.8,-29.0,24.4,1.9,-28.7,5.73,2.40,-28.1,29.3
2012-11-14 00:21:00,0.0,1.9033,0.0009,399.83,0.25,23.3,25.7,138.08,30.01,24.65,36.42,0.04,-272.75,-272.75,-47,562,-943,24.4,1.8,-28.9,24.4,1.9,-28.7,5.73,2.39,-28.1,29.3
2012-11-14 00:22:00,0.0,1.9030,0.0009,399.87,0.24,18.7,23.2,138.08,30.01,24.65,36.42,0.04,-272.75,-272.75,-47,562,-943,24.4,1.9,-28.8,24.4,1.9,-28.6,5.73,2.38,-28.1,29.3
2012-11-14 00:23:00,0.0,1.9027,0.0010,399.74,0.30,17.4,23.7,138.08,30.01,24.65,36.42,0.04,-272.75,-272.75,-47,562,-943,24.4,1.9,-28.8,24.4,1.9,-28.4,5.73,2.39,-28.1,29.3
2012-11-14 00:24:00,0.0,1.9034,0.0008,399.68,0.24,20.6,21.9,138.08,30.00,24.65,36.43,0.04,-272.75,-272.75,-47,562,-943,24.4,1.9,-28.6,24.4,1.9,-28.3,5.73,2.40,-28.1,29.2
2012-11-14 00:25:00,0.0,1.9027,0.0010,399.69,0.25,26.6,24.4,138.08,30.00,24.66,36.42,0.04,-272.75,-272.75,-47,562,-943,24.4,1.9,-28.5,24.4,2.0,-28.2,5.73,2.41,-28.1,29.3
2012-11-14 00:26:00,0.0,1.9029,0.0009,399.78,0.31,15.2,22.9,138.08,30.00,24.65,36.41,0.04,-272.75,-272.75,-47,562,-943,24.4,1.9,-28.5,24.4,2.0,-28.2,5.73,2.42,-28.1,29.2
2012-11-14 00:27:00,0.0,1.9028,0.0007,399.82,0.26,19.5,21.4,138.08,30.00,24.65,36.41,0.04,-272.75,-272.75,-47,562,-944,24.4,1.9,-28.3,24.4,2.0,-28.2,5.73,2.42,-28.1,29.2
2012-11-14 00:28:00,0.0,1.9029,0.0009,399.77,0.25,15.7,20.5,138.08,30.00,24.65,36.42,0.04,-272.75,-272.75,-47,562,-943,24.4,1.9,-28.3,24.4,2.0,-28.0,5.73,2.42,-28.1,29.2
2012-11-14 00:29:00,0.0,1.9025,0.0011,399.76,0.25,19.6,25.3,138.08,30.00,24.65,36.42,0.04,-272.75,-272.75,-47,562,-943,24.4,2.0,-28.2,24.4,2.0,-27.9,5.73,2.42,-28.1,29.2
2012-11-14 00:30:00,0.0,1.9024,0.0011,399.70,0.25,17.9,21.8,138.08,29.99,24.65,36.42,0.04,-272.75,-272.75,-47,562,-943,24.4,2.0,-28.2,24.4,2.0,-27.9,5.73,2.42,-28.1,29.2
2012-11-14 00:31:00,0.0,1.9024,0.0008,399.77,0.24,20.6,23.6,138.08,29.99,24.65,36.42,0.04,-272.75,-272.75,-47,562,-944,24.4,1.9,-28.4,24.4,2.0,-28.2,5.73,2.41,-28.1,29.3
2012-11-14 00:32:00,0.0,1.9021,0.0010,399.62,0.25,16.9,23.3,138.08,29.99,24.66,36.43,0.04,-272.75,-272.75,-47,562,-943,24.4,1.9,-28.6,24.4,1.9,-28.3,5.73,2.40,-28.1,29.2
2012-11-14 00:33:00,0.0,1.9019,0.0007,399.81,0.26,20.6,24.0,138.08,29.99,24.65,36.42,0.04,-272.75,-272.75,-47,562,-943,24.4,1.8,-28.9,24.4,1.9,-28.6,5.73,2.39,-28.1,29.2
2012-11-14 00:34:00,0.0,1.9021,0.0009,399.91,0.24,20.4,22.6,138.08,29.98,24.65,36.41,0.04,-272.75,-272.75,-47,562,-943,24.4,1.8,-29.2,24.4,1.8,-28.8,5.73,2.39,-28.1,29.2
2012-11-14 00:35:00,0.0,1.9019,0.0010,399.89,0.21,22.3,23.9,138.08,29.98,24.66,36.42,0.04,-272.75,-272.75,-47,562,-943,24.4,1.8,-29.3,24.4,1.8,-29.1,5.73,2.39,-28.1,29.2
2012-11-14 00:36:00,0.0,1.9018,0.0011,399.84,0.27,17.7,22.2,138.08,29.98,24.65,36.42,0.04,-272.75,-272.75,-47,562,-943,24.4,1.8,-29.3,24.4,1.8,-29.1,5.73,2.39,-28.1,29.2
2012-11-14 00:37:00,0.0,1.9020,0.0009,399.83,0.23,14.7,22.3,138.08,29.98,24.66,36.42,0.04,-272.75,-272.75,-47,562,-943,24.4,1.8,-29.2,24.4,1.8,-29.0,5.73,2.40,-28.1,29.2
2012-11-14 00:38:00,0.0,1.9016,0.0009,399.78,0.26,19.9,27.2,138.08,29.98,24.65,36.41,0.04,-272.75,-272.75,-47,562,-943,24.4,1.8,-29.3,24.4,1.8,-29.0,5.73,2.41,-28.1,29.2
2012-11-14 00:39:00,0.0,1.9015,0.0010,399.76,0.21,20.1,26.1,138.08,29.98,24.65,36.42,0.04,-272.75,-272.75,-47,562,-943,24.3,1.8,-29.3,24.4,1.8,-29.0,5.73,2.42,-28.1,29.2
2012-11-14 00:40:00,0.0,1.9017,0.0010,399.74,0.25,18.7,23.5,138.08,29.97,24.65,36.41,0.04,-272.75,-272.75,-47,562,-943,24.3,1.8,-29.3,24.4,1.8,-29.1,5.73,2.42,-28.2,29.2
2012-11-14 00:41:00,0.0,1.9018,0.0010,399.60,0.24,16.4,19.2,138.08,29.97,24.65,36.42,0.04,-272.75,-272.75,-47,561,-943,24.3,1.7,-29.5,24.4,1.8,-29.2,5.73,2.43,-28.1,29.2
2012-11-14 00:42:00,0.0,1.9017,0.0010,399.72,0.28,25.9,29.2,138.08,29.97,24.65,36.42,0.04,-272.75,-272.75,-47,562,-943,24.3,1.7,-29.5,24.4,1.8,-29.1,5.73,2.42,-28.1,29.2
2012-11-14 00:43:00,0.0,1.9034,0.0014,399.89,0.30,15.2,20.6,138.08,29.97,24.66,36.41,0.04,-272.75,-272.75,-47,562,-943,24.3,1.7,-29.6,24.4,1.8,-29.4,5.73,2.42,-28.1,29.2
2012-11-14 00:44:00,0.0,1.9053,0.0010,399.86,0.27,15.7,21.7,138.08,29.96,24.65,36.41,0.04,-272.75,-272.75,-47,562,-943,24.3,1.7,-29.9,24.3,1.7,-29.5,5.73,2.42,-28.1,29.2
2012-11-14 00:45:00,0.0,1.9049,0.0010,399.79,0.25,25.1,23.0,138.08,29.96,24.65,36.42,0.04,-272.75,-272.75,-47,561,-943,24.3,1.6,-30.1,24.4,1.7,-29.7,5.73,2.41,-28.1,29.2
2012-11-14 00:46:00,0.0,1.9037,0.0009,399.83,0.23,16.8,23.1,138.08,29.96,24.65,36.41,0.04,-272.75,-272.75,-47,562,-943,24.3,1.6,-30.1,24.4,1.7,-29.8,5.73,2.41,-28.1,29.2
2012-11-14 00:47:00,0.0,1.9035,0.0010,399.82,0.22,22.2,22.1,138.08,29.96,24.65,36.42,0.04,-272.75,-272.75,-47,562,-943,24.3,1.6,-30.2,24.3,1.7,-30.0,5.73,2.41,-28.1,29.2
2012-11-14 00:48:00,0.0,1.9032,0.0009,399.89,0.24,15.7,21.7,138.08,29.95,24.65,36.42,0.04,-272.75,-272.75,-47,562,-943,24.3,1.6,-30.3,24.3,1.7,-30.0,5.73,2.40,-28.1,29.2
2012-11-14 00:49:00,0.0,1.9031,0.0008,399.82,0.28,13.9,21.2,138.08,29.95,24.65,36.42,0.04,-272.75,-272.74,-47,562,-943,24.3,1.6,-30.4,24.3,1.7,-30.0,5.73,2.39,-28.1,29.2
2012-11-14 00:50:00,0.0,1.9026,0.0009,399.68,0.22,19.8,21.2,138.08,29.95,24.65,36.42,0.04,-272.75,-272.75,-47,562,-943,24.3,1.6,-30.4,24.4,1.7,-30.0,5.73,2.39,-28.1,29.2
2012-11-14 00:51:00,0.0,1.9029,0.0010,399.77,0.25,20.4,25.5,138.08,29.95,24.65,36.42,0.04,-272.75,-272.76,-47,562,-943,24.3,1.6,-30.2,24.4,1.7,-30.0,5.73,2.40,-28.1,29.2
2012-11-14 00:52:00,0.0,1.9029,0.0012,399.85,0.26,18.7,23.3,138.08,29.95,24.65,36.41,0.04,-272.75,-272.75,-47,562,-943,24.3,1.6,-30.2,24.3,1.7,-29.8,5.73,2.39,-28.1,29.1
2012-11-14 00:53:00,0.0,1.9026,0.0010,399.82,0.26,17.8,20.9,138.08,29.95,24.65,36.41,0.04,-272.75,-272.75,-47,562,-943,24.3,1.6,-30.2,24.3,1.7,-29.9,5.73,2.40,-28.1,29.2
2012-11-14 00:54:00,0.0,1.9023,0.0010,399.73,0.29,25.2,29.3,138.08,29.95,24.65,36.42,0.04,-272.75,-272.75,-47,562,-943,24.3,1.7,-29.9,24.3,1.7,-29.6,5.73,2.40,-28.1,29.2
2012-11-14 00:55:00,0.0,1.9022,0.0010,399.73,0.19,19.5,23.5,138.08,29.95,24.65,36.41,0.04,-272.75,-272.75,-47,562,-943,24.3,1.7,-29.9,24.4,1.7,-29.6,5.73,2.41,-28.1,29.2
2012-11-14 00:56:00,0.0,1.9023,0.0009,399.71,0.25,16.5,22.0,138.08,29.94,24.65,36.42,0.04,-272.75,-272.75,-47,562,-943,24.3,1.7,-29.8,24.3,1.7,-29.5,5.73,2.42,-28.1,29.2
2012-11-14 00:57:00,0.0,1.9021,0.0010,399.59,0.22,24.4,22.3,138.08,29.94,24.65,36.42,0.04,-272.75,-272.75,-47,562,-943,24.3,1.7,-29.7,24.3,1.7,-29.5,5.73,2.43,-28.1,29.2
2012-11-14 00:58:00,0.0,1.9021,0.0008,399.67,0.26,16.2,23.4,138.08,29.94,24.65,36.42,0.04,-272.75,-272.75,-47,562,-943,24.3,1.7,-29.6,24.3,1.8,-29.4,5.73,2.43,-28.1,29.2
2012-11-14 00:59:00,0.0,1.9020,0.0009,399.69,0.24,24.1,26.6,138.08,29.94,24.66,36.42,0.04,-272.75,-272.75,-47,562,-943,24.3,1.7,-29.6,24.3,1.8,-29.3,5.73,2.43,-28.1,29.2
2012-11-14 01:00:00,0.0,1.9024,0.0010,399.65,0.25,17.2,23.3,138.08,29.94,24.65,36.42,0.04,-272.75,-272.75,-47,562,-943,24.3,1.7,-29.6,24.3,1.8,-29.3,5.73,2.42,-28.1,29.2
2012-11-14 01:01:00,0.0,1.9024,0.0009,399.70,0.26,17.8,21.3,138.08,29.94,24.65,36.42,0.04,-272.75,-272.75,-47,561,-943,24.3,1.7,-29.7,24.3,1.8,-29.3,5.73,2.41,-28.1,29.2
2012-11-14 01:02:00,0.0,1.9029,0.0010,399.64,0.23,16.1,21.4,138.08,29.93,24.65,36.42,0.04,-272.75,-272.75,-47,562,-943,24.3,1.7,-29.7,24.3,1.8,-29.3,5.73,2.40,-28.2,29.2
2012-11-14 01:03:00,0.0,1.9027,0.0009,399.69,0.24,19.5,26.5,138.08,29.93,24.65,36.42,0.04,-272.75,-272.74,-47,562,-943,24.3,1.7,-29.5,24.3,1.8,-29.2,5.73,2.39,-28.2,29.2
2012-11-14 01:04:00,0.0,1.9023,0.0009,399.72,0.29,19.1,22.4,138.08,29.93,24.65,36.42,0.04,-272.75,-272.75,-47,562,-943,24.3,1.8,-29.4,24.3,1.8,-29.1,5.73,2.39,-28.2,29.2
2012-11-14 01:05:00,0.0,1.9028,0.0009,399.59,0.23,10.6,19.8,138.08,29.93,24.65,36.43,0.04,-272.75,-272.75,-47,562,-943,24.3,1.8,-29.4,24.3,1.8,-29.0,5.73,2.39,-28.2,29.2
2012-11-14 01:06:00,0.0,1.9026,0.0010,399.72,0.20,20.8,24.0,138.08,29.93,24.65,36.42,0.04,-272.75,-272.75,-47,562,-943,24.3,1.8,-29.1,24.3,1.9,-28.9,5.73,2.39,-28.2,29.2
2012-11-14 01:07:00,0.0,1.9028,0.0010,399.84,0.27,20.7,22.0,138.08,29.92,24.65,36.41,0.04,-272.75,-272.75,-47,562,-943,24.3,1.8,-29.2,24.3,1.9,-28.8,5.73,2.40,-28.2,29.2
2012-11-14 01:08:00,0.0,1.9026,0.0009,399.80,0.25,17.7,20.9,138.08,29.92,24.65,36.41,0.04,-272.75,-272.75,-47,561,-943,24.3,1.8,-29.1,24.3,1.9,-28.8,5.73,2.40,-28.2,29.2
2012-11-14 01:09:00,0.0,1.9022,0.0008,399.77,0.19,20.2,25.0,138.08,29.92,24.65,36.41,0.04,-272.75,-272.75,-47,562,-942,24.3,1.8,-29.0,24.3,1.9,-28.6,5.73,2.41,-28.2,29.2
2012-11-14 01:10:00,0.0,1.9023,0.0009,399.76,0.26,16.0,21.0,138.08,29.91,24.65,36.42,0.04,-272.75,-272.76,-47,561,-943,24.3,1.8,-29.0,24.3,1.9,-28.7,5.73,2.42,-28.2,29.2
2012-11-14 01:11:00,0.0,1.9026,0.0010,399.68,0.27,20.5,25.6,138.08,29.91,24.65,36.42,0.04,-272.75,-272.75,-47,561,-942,24.3,1.9,-28.8,24.3,1.9,-28.7,5.73,2.43,-28.2,29.2
2012-11-14 01:12:00,0.0,1.9024,0.0008,399.81,0.23,15.1,18.9,138.08,29.91,24.65,36.42,0.04,-272.75,-272.75,-47,561,-943,24.3,1.9,-28.9,24.3,1.9,-28.6,5.73,2.43,-28.2,29.2
2012-11-14 01:13:00,0.0,1.9023,0.0009,399.70,0.23,14.7,21.4,138.08,29.91,24.65,36.43,0.04,-272.75,-272.75,-47,561,-943,24.3,1.9,-28.8,24.3,1.9,-28.6,5.73,2.42,-28.2,29.2
2012-11-14 01:14:00,0.0,1.9025,0.0010,399.73,0.25,22.5,27.2,138.08,29.91,24.65,36.42,0.04,-272.75,-272.75,-47,561,-943,24.3,1.8,-28.9,24.3,1.9,-28.5,5.73,2.41,-28.2,29.2
2012-11-14 01:15:00,0.0,1.9022,0.0012,399.84,0.26,19.8,22.7,138.08,29.91,24.65,36.42,0.04,-272.75,-272.75,-47,561,-943,24.3,1.9,-28.8,24.3,1.9,-28.5,5.73,2.41,-28.2,29.2
2012-11-14 01:16:00,0.0,1.9026,0.0011,399.90,0.26,21.1,24.4,138.08,29.91,24.65,36.42,0.04,-272.75,-272.75,-47,561,-942,24.3,1.9,-28.8,24.3,1.9,-28.5,5.73,2.40,-28.2,29.2
2012-11-14 01:17:00,0.0,1.9027,0.0009,399.75,0.23,24.6,28.7,138.08,29.91,24.65,36.42,0.04,-272.75,-272.75,-47,561,-943,24.3,1.9,-28.9,24.3,1.9,-28.5,5.73,2.39,-28.2,29.2
2012-11-14 01:18:00,0.0,1.9027,0.0009,399.71,0.25,18.9,24.8,138.08,29.91,24.66,36.42,0.04,-272.75,-272.75,-47,561,-942,24.3,1.9,-28.8,24.3,1.9,-28.7,5.73,2.39,-28.2,29.1
2012-11-14 01:19:00,0.0,1.9031,0.0011,399.97,0.23,19.2,23.1,138.08,29.91,24.65,36.41,0.04,-272.75,-272.75,-47,562,-943,24.3,1.9,-28.8,24.3,1.9,-28.7,5.73,2.39,-28.2,29.1
2012-11-14 01:20:00,0.0,1.9042,0.0010,399.86,0.27,20.6,21.4,138.08,29.91,24.65,36.42,0.04,-272.75,-272.75,-47,561,-942,24.3,1.9,-28.8,24.3,1.9,-28.5,5.73,2.39,-28.2,29.1
2012-11-14 01:21:00,0.0,1.9033,0.0012,399.91,0.28,12.7,20.0,138.08,29.90,24.65,36.41,0.04,-272.75,-272.75,-47,561,-943,24.3,1.8,-28.9,24.3,1.9,-28.6,5.73,2.40,-28.2,29.1
2012-11-14 01:22:00,0.0,1.9035,0.0009,399.81,0.24,19.1,24.3,138.08,29.90,24.65,36.42,0.04,-272.75,-272.75,-47,561,-943,24.3,1.8,-29.0,24.3,1.9,-28.7,5.73,2.41,-28.2,29.1
2012-11-14 01:23:00,0.0,1.9031,0.0009,399.66,0.23,14.3,19.1,138.08,29.90,24.65,36.42,0.04,-272.75,-272.75,-47,561,-942,24.3,1.8,-29.0,24.3,1.9,-28.7,5.73,2.42,-28.2,29.1
2012-11-14 01:24:00,0.0,1.9032,0.0009,399.72,0.25,14.8,25.0,138.08,29.90,24.65,36.42,0.04,-272.75,-272.75,-47,561,-943,24.3,1.8,-29.1,24.3,1.9,-28.8,5.73,2.43,-28.2,29.1
2012-11-14 01:25:00,0.0,1.9029,0.0010,399.76,0.20,21.9,23.8,138.08,29.89,24.65,36.41,0.04,-272.75,-272.75,-47,561,-942,24.3,1.8,-29.2,24.3,1.9,-28.7,5.73,2.43,-28.2,29.2
2012-11-14 01:26:00,0.0,1.9032,0.0011,399.63,0.24,14.6,16.6,138.08,29.89,24.65,36.42,0.04,-272.75,-272.75,-47,561,-943,24.3,1.8,-29.2,24.3,1.8,-29.0,5.73,2.42,-28.2,29.1
2012-11-14 01:27:00,0.0,1.9030,0.0009,399.71,0.24,21.1,21.6,138.08,29.88,24.65,36.42,0.04,-272.75,-272.75,-47,561,-943,24.3,1.8,-29.4,24.3,1.8,-29.0,5.73,2.42,-28.3,29.2
2012-11-14 01:28:00,0.0,1.9029,0.0010,399.71,0.29,14.0,20.8,138.08,29.88,24.65,36.42,0.04,-272.75,-272.75,-47,561,-942,24.3,1.7,-29.6,24.3,1.8,-29.1,5.73,2.40,-28.2,29.1
2012-11-14 01:29:00,0.0,1.9034,0.0011,399.65,0.25,16.1,20.7,138.08,29.88,24.65,36.41,0.04,-272.75,-272.75,-47,561,-943,24.3,1.7,-29.7,24.3,1.8,-29.3,5.73,2.40,-28.2,29.1
2012-11-14 01:30:00,0.0,1.9033,0.0010,399.68,0.29,12.7,21.2,138.08,29.88,24.65,36.41,0.04,-272.75,-272.75,-47,561,-942,24.3,1.7,-29.7,24.3,1.8,-29.4,5.73,2.39,-28.2,29.1
2012-11-14 01:31:00,0.0,1.9034,0.0011,399.73,0.24,17.1,21.3,138.08,29.88,24.65,36.42,0.04,-272.75,-272.75,-47,561,-943,24.2,1.7,-29.7,24.3,1.8,-29.3,5.73,2.39,-28.2,29.1
2012-11-14 01:32:00,0.0,1.9029,0.0011,399.78,0.25,15.8,23.4,138.08,29.87,24.66,36.41,0.04,-272.75,-272.75,-47,561,-942,24.3,1.7,-29.7,24.3,1.8,-29.3,5.73,2.39,-28.3,29.2
2012-11-14 01:33:00,0.0,1.9034,0.0009,399.54,0.22,16.5,20.0,138.08,29.87,24.65,36.43,0.04,-272.75,-272.75,-47,561,-943,24.3,1.7,-29.5,24.3,1.8,-29.1,5.73,2.39,-28.1,29.1
2012-11-14 01:34:00,0.0,1.9033,0.0010,399.75,0.24,19.8,22.0,138.08,29.87,24.65,36.41,0.04,-272.75,-272.75,-47,561,-943,24.3,1.7,-29.5,24.3,1.8,-29.2,5.73,2.40,-27.9,29.1
2012-11-14 01:35:00,0.0,1.9035,0.0010,399.66,0.27,12.7,23.4,138.08,29.86,24.65,36.42,0.04,-272.75,-272.75,-47,561,-942,24.3,1.8,-29.4,24.3,1.8,-29.0,5.73,2.41,-27.9,29.1
2012-11-14 01:36:00,0.0,1.9024,0.0011,399.68,0.23,19.1,19.1,138.08,29.86,24.66,36.42,0.04,-272.75,-272.75,-47,561,-943,24.3,1.8,-29.3,24.3,1.8,-29.0,5.73,2.42,-27.9,29.1
2012-11-14 01:37:00,0.0,1.9029,0.0010,399.60,0.28,20.5,24.7,138.08,29.86,24.65,36.42,0.04,-272.75,-272.75,-47,561,-942,24.3,1.8,-29.3,24.3,1.8,-29.0,5.73,2.42,-27.9,29.1
2012-11-14 01:38:00,0.0,1.9036,0.0010,399.78,0.26,24.3,27.6,138.08,29.86,24.65,36.41,0.04,-272.75,-272.75,-47,561,-942,24.3,1.8,-29.3,24.3,1.8,-29.0,5.73,2.43,-27.9,29.1
2012-11-14 01:39:00,0.0,1.9027,0.0010,399.78,0.31,26.6,30.7,138.08,29.86,24.66,36.42,0.04,-272.75,-272.75,-47,561,-943,24.3,1.8,-29.1,24.3,1.8,-29.0,5.73,2.43,-27.9,29.1
2012-11-14 01:40:00,0.0,1.9029,0.0009,399.67,0.25,21.9,23.5,138.08,29.86,24.65,36.42,0.04,-272.75,-272.75,-47,561,-942,24.3,1.8,-29.2,24.3,1.8,-29.0,5.73,2.42,-27.9,29.1
2012-11-14 01:41:00,0.0,1.9028,0.0009,399.79,0.21,17.6,22.8,138.08,29.86,24.65,36.42,0.04,-272.75,-272.75,-47,561,-943,24.2,1.8,-29.1,24.3,1.9,-28.8,5.73,2.42,-27.9,29.1
2012-11-14 01:42:00,0.0,1.9025,0.0008,399.69,0.26,20.4,21.5,138.08,29.85,24.65,36.42,0.04,-272.75,-272.75,-47,561,-942,24.3,1.8,-29.2,24.3,1.8,-29.0,5.73,2.41,-27.9,29.1
2012-11-14 01:43:00,0.0,1.9021,0.0010,399.69,0.23,18.7,26.3,138.08,29.85,24.65,36.42,0.04,-272.75,-272.75,-47,561,-942,24.2,1.8,-29.1,24.3,1.9,-28.9,5.73,2.40,-27.9,29.1
2012-11-14 01:44:00,0.0,1.9023,0.0010,399.79,0.22,20.5,25.8,138.08,29.85,24.65,36.41,0.04,-272.75,-272.75,-47,561,-943,24.2,1.9,-28.8,24.3,1.9,-28.9,5.73,2.40,-27.9,29.1
2012-11-14 01:45:00,0.0,1.9021,0.0009,399.81,0.28,17.6,22.8,138.08,29.85,24.65,36.41,0.04,-272.75,-272.75,-47,561,-942,24.2,1.9,-28.7,24.3,1.9,-28.7,5.73,2.39,-27.9,29.1
2012-11-14 01:46:00,0.0,1.9024,0.0009,399.77,0.26,21.2,24.9,138.08,29.85,24.65,36.41,0.04,-272.75,-272.75,-47,561,-943,24.2,1.9,-28.8,24.3,1.9,-28.7,5.73,2.39,-27.9,29.1
2012-11-14 01:47:00,0.0,1.9026,0.0010,399.74,0.23,17.1,20.3,138.08,29.84,24.65,36.42,0.04,-272.75,-272.75,-47,561,-942,24.2,1.9,-28.7,24.2,1.9,-28.7,5.73,2.38,-27.9,29.1
2012-11-14 01:48:00,0.0,1.9027,0.0010,399.87,0.28,19.9,21.3,138.08,29.84,24.65,36.41,0.04,-272.75,-272.75,-47,561,-942,24.2,1.9,-28.6,24.2,1.9,-28.7,5.73,2.40,-28.0,29.1
2012-11-14 01:49:00,0.0,1.9036,0.0012,399.68,0.24,18.3,21.4,138.08,29.84,24.65,36.42,0.04,-272.75,-272.75,-47,561,-943,24.2,1.9,-28.6,24.2,1.9,-28.7,5.73,2.40,-28.0,29.1
2012-11-14 01:50:00,0.0,1.9049,0.0008,399.77,0.24,17.0,22.9,138.08,29.84,24.65,36.42,0.04,-272.75,-272.75,-47,561,-942,24.2,1.9,-28.7,24.2,1.9,-28.8,5.73,2.41,-28.0,29.1
2012-11-14 01:51:00,0.0,1.9036,0.0011,399.75,0.20,18.2,22.8,138.08,29.84,24.65,36.42,0.04,-272.75,-272.75,-47,561,-943,24.2,1.9,-28.9,24.2,1.8,-29.0,5.73,2.42,-28.0,29.1
2012-11-14 01:52:00,0.0,1.9048,0.0015,399.75,0.22,16.8,20.8,138.08,29.84,24.65,36.42,0.04,-272.75,-272.75,-47,561,-942,24.2,1.8,-29.0,24.2,1.8,-29.1,5.73,2.42,-28.0,29.1
2012-11-14 01:53:00,0.0,1.9059,0.0012,399.80,0.26,21.8,26.0,138.08,29.84,24.65,36.42,0.04,-272.75,-272.75,-47,561,-942,24.2,1.8,-29.2,24.2,1.8,-29.3,5.73,2.43,-28.0,29.0
2012-11-14 01:54:00,0.0,1.9083,0.0009,399.89,0.20,22.4,25.7,138.08,29.83,24.65,36.42,0.04,-272.75,-272.75,-47,561,-943,24.2,1.8,-29.4,24.2,1.8,-29.4,5.73,2.43,-28.0,29.1
2012-11-14 01:55:00,0.0,1.9075,0.0008,399.91,0.21,13.0,20.2,138.08,29.83,24.65,36.41,0.04,-272.75,-272.75,-47,561,-942,24.2,1.8,-29.5,24.2,1.8,-29.5,5.73,2.43,-28.0,29.1
2012-11-14 01:56:00,0.0,1.9076,0.0010,399.79,0.31,20.5,26.1,138.08,29.83,24.65,36.42,0.04,-272.75,-272.75,-47,561,-943,24.2,1.7,-29.5,24.2,1.8,-29.4,5.73,2.42,-28.0,29.1
2012-11-14 01:57:00,0.0,1.9071,0.0009,399.78,0.21,22.6,22.1,138.08,29.82,24.65,36.41,0.04,-272.75,-272.75,-47,561,-942,24.2,1.8,-29.5,24.2,1.8,-29.4,5.73,2.41,-28.0,29.1
2012-11-14 01:58:00,0.0,1.9066,0.0009,399.63,0.23,20.0,26.7,138.08,29.82,24.66,36.42,0.04,-272.75,-272.75,-47,561,-942,24.2,1.7,-29.6,24.2,1.7,-29.5,5.73,2.40,-28.0,29.1
2012-11-14 01:59:00,0.0,1.9066,0.0009,399.78,0.26,18.0,23.1,138.08,29.82,24.65,36.41,0.04,-272.75,-272.75,-47,561,-943,24.2,1.7,-29.7,24.2,1.8,-29.5,5.73,2.40,-28.0,29.0
2012-11-14 02:00:00,0.0,1.9050,0.0013,399.65,0.24,14.3,20.4,138.08,29.82,24.66,36.42,0.04,-272.75,-272.75,-47,561,-942,24.2,1.7,-29.8,24.2,1.7,-29.6,5.73,2.39,-28.0,29.1
2012-11-14 02:01:00,0.0,1.9056,0.0008,399.55,0.27,17.6,21.3,138.08,29.81,24.65,36.42,0.04,-272.75,-272.75,-47,561,-943,24.2,1.7,-29.7,24.2,1.7,-29.6,5.73,2.39,-28.0,29.0
2012-11-14 02:02:00,0.0,1.9055,0.0009,399.76,0.22,18.0,20.8,138.08,29.81,24.65,36.41,0.04,-272.75,-272.76,-47,561,-942,24.2,1.7,-29.6,24.2,1.8,-29.4,5.73,2.39,-28.0,29.0
2012-11-14 02:03:00,0.0,1.9050,0.0008,399.65,0.23,22.5,23.4,138.08,29.81,24.65,36.41,0.04,-272.75,-272.75,-47,561,-942,24.2,1.7,-29.6,24.2,1.8,-29.3,5.73,2.40,-28.0,29.0
2012-11-14 02:04:00,0.0,1.9050,0.0010,399.51,0.24,18.2,25.7,138.08,29.81,24.65,36.42,0.04,-272.75,-272.75,-47,561,-943,24.2,1.8,-29.5,24.2,1.8,-29.2,5.73,2.41,-28.0,29.0
2012-11-14 02:05:00,0.0,1.9055,0.0009,399.52,0.24,18.2,21.7,138.08,29.81,24.66,36.42,0.04,-272.75,-272.75,-47,561,-942,24.2,1.8,-29.4,24.2,1.8,-29.2,5.73,2.41,-28.0,29.0
2012-11-14 02:06:00,0.0,1.9059,0.0010,399.58,0.25,19.9,24.1,138.08,29.81,24.65,36.42,0.04,-272.75,-272.75,-47,561,-942,24.2,1.8,-29.4,24.2,1.8,-29.2,5.73,2.42,-28.0,29.1
2012-11-14 02:07:00,0.0,1.9054,0.0009,399.63,0.21,18.5,22.1,138.08,29.80,24.65,36.41,0.04,-272.75,-272.75,-47,561,-943,24.1,1.8,-29.4,24.2,1.8,-29.3,5.73,2.42,-28.0,29.1
2012-11-14 02:08:00,0.0,1.9056,0.0009,399.62,0.30,21.0,23.3,138.08,29.80,24.65,36.41,0.04,-272.75,-272.75,-47,561,-942,24.1,1.8,-29.4,24.2,1.8,-29.3,5.73,2.43,-28.0,29.0
2012-11-14 02:09:00,0.0,1.9060,0.0010,399.62,0.26,14.1,19.5,138.08,29.80,24.65,36.41,0.04,-272.75,-272.75,-47,561,-943,24.1,1.8,-29.4,24.2,1.8,-29.1,5.73,2.42,-28.0,29.0
2012-11-14 02:10:00,0.0,1.9058,0.0009,399.56,0.26,20.2,22.8,138.08,29.80,24.65,36.41,0.04,-272.75,-272.75,-47,561,-942,24.1,1.8,-29.4,24.2,1.8,-29.0,5.73,2.42,-28.0,29.0
2012-11-14 02:11:00,0.0,1.9062,0.0011,399.56,0.25,21.8,22.8,138.08,29.80,24.65,36.42,0.04,-272.75,-272.75,-47,561,-942,24.1,1.8,-29.3,24.2,1.8,-29.0,5.73,2.42,-28.0,29.0
2012-11-14 02:12:00,0.0,1.9060,0.0010,399.59,0.25,15.5,19.6,138.08,29.80,24.65,36.41,0.04,-272.75,-272.75,-47,561,-942,24.1,1.8,-29.2,24.2,1.9,-28.9,5.73,2.41,-28.0,29.1
2012-11-14 02:13:00,0.0,1.9060,0.0009,399.63,0.24,17.3,21.4,138.08,29.79,24.65,36.41,0.04,-272.75,-272.75,-47,561,-942,24.1,1.8,-29.0,24.2,1.9,-28.9,5.73,2.40,-28.1,29.1
2012-11-14 02:14:00,0.0,1.9055,0.0011,399.57,0.26,17.3,23.7,138.08,29.79,24.65,36.42,0.04,-272.75,-272.75,-47,561,-942,24.1,1.8,-29.2,24.2,1.9,-28.9,5.73,2.39,-28.1,29.0
2012-11-14 02:15:00,0.0,1.9055,0.0010,399.63,0.21,12.7,21.6,138.08,29.79,24.65,36.41,0.04,-272.75,-272.75,-47,561,-943,24.1,1.8,-29.3,24.2,1.8,-29.0,5.73,2.39,-28.1,29.0
2012-11-14 02:16:00,0.0,1.9048,0.0010,399.57,0.25,15.5,20.8,138.08,29.79,24.66,36.42,0.04,-272.75,-272.75,-47,561,-942,24.1,1.8,-29.4,24.2,1.8,-29.1,5.73,2.39,-28.1,29.0
2012-11-14 02:17:00,0.0,1.9043,0.0009,399.66,0.25,25.3,23.5,138.08,29.79,24.66,36.41,0.04,-272.75,-272.75,-47,561,-942,24.1,1.8,-29.6,24.1,1.8,-29.2,5.73,2.39,-28.1,29.0